Location: Sears
(37.7625°N, 100.1060°W)
Time: 21:54:56
(UTC+00:00)

SKYMED 2 - Pass Details

Date: 29 October 2020
Orbit: 621 x 623 km, 97.9° (Epoch: 01 December)

Event Time Altitude Azimuth Distance (km) Brightness Sun altitude
Rises 12:31:19 0° 187° (S) 2,890 7.1 -7.0°
Reaches altitude 10° 12:33:39 10° 197° (SSW) 1,988 6.1 -6.5°
Maximum altitude 12:37:35 34° 262° (W) 1,034 4.2 -5.7°
Drops below altitude 10° 12:41:33 10° 328° (NNW) 2,001 5.8 -5.0°
Sets 12:43:56 0° 338° (NNW) 2,912 6.7 -4.5°
